User: anonymous
Location: Irma
(52.9170°N, 111.2330°W)
Time: 05:43:47
(UTC-06:00)
Language:

Cosmos 2279 Rocket - Orbit

View from above orbital plane
View from above orbital plane
View from above satellite
View from above satellite

Ground track
Ground track

The orbit data is extracted from the following two-line orbital elements,

1 23093U 94024B   14113.81088602  .00000061  00000-0  45544-4 0  8373
2 23093 082.9477 249.9679 0009431 355.7728 004.3348 13.77614568473033
Epoch (UTC): 23 April 2014 19:27:40
Eccentricity: 0.0009431
inclination: 82.9477°
perigee height: 965 km
apogee height: 979 km
right ascension of ascending node: 249.9679°
argument of perigee: 355.7728°
revolutions per day: 13.77614568
mean anomaly at epoch: 4.3348°
orbit number at epoch: 47303

The dashed part of the orbit path shows where the satellite is in the earth's shadow,  

DLR